SWA2300 KPHX-KELP

Flight info

Callsign SWA2300
Flight time 0h 48m
Altitude 35000
Route ECLPS1 PHASE TEEES MOLLY5
Aircraft B38M/M-SDE1FGHILORVWXY/HB1

Departure

Time 2026-05-05 19:35
Airport Phoenix Sky Harbor International Airport (KPHX)

Arrival

Time 2026-05-05 20:24
Airport El Paso International Airport (KELP)
Time Latitude Longitude Altitude Speed Heading
2026-05-05 19:16 33.43409 -111.99364 1133 ft 0 kts 286°
2026-05-05 19:28 33.43407 -111.99356 1135 ft 2 kts 285°
2026-05-05 19:28 33.43403 -111.99333 1135 ft 3 kts 274°
2026-05-05 19:29 33.43404 -111.99314 1137 ft 3 kts 228°
2026-05-05 19:29 33.43410 -111.99310 1133 ft 1 kts 179°
2026-05-05 19:32 33.43404 -111.99310 1137 ft 2 kts 179°
2026-05-05 19:32 33.43390 -111.99310 1136 ft 4 kts 180°
2026-05-05 19:33 33.43353 -111.99309 1137 ft 7 kts 177°
2026-05-05 19:33 33.43301 -111.99320 1137 ft 9 kts 204°
2026-05-05 19:33 33.43239 -111.99347 1137 ft 9 kts 183°
2026-05-05 19:33 33.43176 -111.99347 1140 ft 9 kts 182°
2026-05-05 19:34 33.43119 -111.99358 1140 ft 8 kts 218°
2026-05-05 19:34 33.43105 -111.99449 1137 ft 25 kts 270°
2026-05-05 19:34 33.43104 -111.99993 1137 ft 103 kts 270°
2026-05-05 19:35 33.43066 -112.02525 1617 ft 177 kts 266°
2026-05-05 19:35 33.42999 -112.03991 2465 ft 181 kts 266°
2026-05-05 19:35 33.42920 -112.05578 3097 ft 204 kts 266°
2026-05-05 19:35 33.42828 -112.07363 3810 ft 225 kts 261°
2026-05-05 19:36 33.42431 -112.09228 4678 ft 239 kts 249°
2026-05-05 19:36 33.41830 -112.11138 5518 ft 252 kts 246°
2026-05-05 19:36 33.41188 -112.13117 6487 ft 260 kts 248°
2026-05-05 19:36 33.40520 -112.15164 7523 ft 262 kts 244°
2026-05-05 19:37 33.39487 -112.16981 8504 ft 267 kts 218°
2026-05-05 19:37 33.37794 -112.17949 9412 ft 275 kts 190°
2026-05-05 19:37 33.35862 -112.17929 10307 ft 285 kts 173°
2026-05-05 19:37 33.33900 -112.17377 11133 ft 295 kts 166°
2026-05-05 19:38 33.31895 -112.16616 11883 ft 307 kts 165°
2026-05-05 19:38 33.29846 -112.15783 12737 ft 315 kts 163°
2026-05-05 19:38 33.27932 -112.14472 13777 ft 321 kts 145°
2026-05-05 19:38 33.26270 -112.12614 14674 ft 331 kts 139°
2026-05-05 19:39 33.24762 -112.10532 15569 ft 336 kts 134°
2026-05-05 19:39 33.23502 -112.08117 16298 ft 354 kts 118°
2026-05-05 19:39 33.22847 -112.05223 17051 ft 366 kts 108°
2026-05-05 19:39 33.22148 -112.02293 17757 ft 369 kts 113°
2026-05-05 19:40 33.21387 -111.99341 18493 ft 374 kts 114°
2026-05-05 19:40 33.20620 -111.96401 19142 ft 382 kts 114°
2026-05-05 19:40 33.19821 -111.93358 19814 ft 386 kts 115°
2026-05-05 19:40 33.19014 -111.90290 20421 ft 392 kts 115°
2026-05-05 19:41 33.18192 -111.87165 21011 ft 397 kts 115°
2026-05-05 19:41 33.17348 -111.83958 21548 ft 403 kts 116°
2026-05-05 19:41 33.16517 -111.80797 22176 ft 406 kts 116°
2026-05-05 19:41 33.15653 -111.77519 22769 ft 410 kts 117°
2026-05-05 19:42 33.14800 -111.74296 23252 ft 417 kts 117°
2026-05-05 19:42 33.13926 -111.70979 23851 ft 419 kts 117°
2026-05-05 19:42 33.13042 -111.67646 24370 ft 425 kts 117°
2026-05-05 19:42 33.12144 -111.64263 24883 ft 429 kts 118°
2026-05-05 19:43 33.11242 -111.60861 25344 ft 433 kts 118°
2026-05-05 19:43 33.10329 -111.57417 25838 ft 439 kts 118°
2026-05-05 19:43 33.09403 -111.53941 26341 ft 440 kts 119°
2026-05-05 19:43 33.08469 -111.50451 26752 ft 447 kts 119°
2026-05-05 19:44 33.07524 -111.46909 27263 ft 447 kts 121°
2026-05-05 19:44 33.06214 -111.43659 27669 ft 427 kts 137°
2026-05-05 19:44 33.04562 -111.40717 27965 ft 433 kts 135°
2026-05-05 19:44 33.02960 -111.37670 28404 ft 436 kts 136°
2026-05-05 19:45 33.01333 -111.34642 28886 ft 435 kts 137°
2026-05-05 19:45 32.99674 -111.31596 29212 ft 440 kts 137°
2026-05-05 19:45 32.98003 -111.28540 29644 ft 443 kts 137°
2026-05-05 19:45 32.96313 -111.25459 30052 ft 445 kts 137°
2026-05-05 19:46 32.94609 -111.22358 30453 ft 448 kts 138°
2026-05-05 19:46 32.92896 -111.19243 30826 ft 451 kts 138°
2026-05-05 19:46 32.91173 -111.16113 31211 ft 453 kts 138°
2026-05-05 19:46 32.89441 -111.12968 31544 ft 456 kts 138°
2026-05-05 19:47 32.87703 -111.09821 31902 ft 457 kts 138°
2026-05-05 19:47 32.85954 -111.06651 32131 ft 462 kts 137°
2026-05-05 19:47 32.84183 -111.03437 32486 ft 466 kts 138°
2026-05-05 19:47 32.82403 -111.00219 32897 ft 466 kts 138°
2026-05-05 19:48 32.80625 -110.97008 33264 ft 466 kts 138°
2026-05-05 19:48 32.78839 -110.93787 33622 ft 467 kts 138°
2026-05-05 19:48 32.77058 -110.90571 34055 ft 465 kts 139°
2026-05-05 19:48 32.75276 -110.87356 34432 ft 465 kts 138°
2026-05-05 19:49 32.73499 -110.84166 34832 ft 466 kts 138°
2026-05-05 19:49 32.71728 -110.80962 35023 ft 465 kts 139°
2026-05-05 19:49 32.69934 -110.77747 35028 ft 465 kts 138°
2026-05-05 19:50 32.66390 -110.71385 35043 ft 461 kts 139°
2026-05-05 19:50 32.64779 -110.68018 35012 ft 483 kts 126°
2026-05-05 19:50 32.63814 -110.64102 35074 ft 504 kts 114°
2026-05-05 19:51 32.62305 -110.55990 35064 ft 505 kts 114°
2026-05-05 19:51 32.60828 -110.47816 35035 ft 506 kts 114°
2026-05-05 19:52 32.59345 -110.39665 35030 ft 506 kts 114°
2026-05-05 19:52 32.58062 -110.32634 35007 ft 503 kts 114°
2026-05-05 19:53 32.57399 -110.27882 34925 ft 515 kts 107°
2026-05-05 19:53 32.56821 -110.23777 35033 ft 495 kts 119°
2026-05-05 19:53 32.55854 -110.19887 34974 ft 501 kts 114°
2026-05-05 19:54 32.54440 -110.11732 35038 ft 505 kts 114°
2026-05-05 19:54 32.52947 -110.03630 35018 ft 503 kts 114°
2026-05-05 19:55 32.51442 -109.95611 34978 ft 501 kts 114°
2026-05-05 19:55 32.49934 -109.87619 35015 ft 502 kts 114°
2026-05-05 19:56 32.48409 -109.79570 35036 ft 502 kts 114°
2026-05-05 19:56 32.46879 -109.71518 34958 ft 500 kts 115°
2026-05-05 19:57 32.45345 -109.63469 34934 ft 502 kts 114°
2026-05-05 19:57 32.43800 -109.55408 34999 ft 503 kts 115°
2026-05-05 19:58 32.42248 -109.47320 34960 ft 506 kts 115°
2026-05-05 19:58 32.40689 -109.39248 35007 ft 504 kts 115°
2026-05-05 19:59 32.39121 -109.31161 35002 ft 505 kts 115°
2026-05-05 19:59 32.37549 -109.23063 34985 ft 505 kts 115°
2026-05-05 20:00 32.35976 -109.14957 35002 ft 507 kts 113°
2026-05-05 20:00 32.35537 -109.10773 35017 ft 520 kts 104°
2026-05-05 20:00 32.35199 -109.06522 34998 ft 519 kts 107°
2026-05-05 20:01 32.34394 -108.98048 35029 ft 517 kts 108°
2026-05-05 20:01 32.33561 -108.89608 35023 ft 517 kts 107°
2026-05-05 20:02 32.32718 -108.81155 35009 ft 520 kts 107°
2026-05-05 20:02 32.31865 -108.72658 35002 ft 521 kts 108°
2026-05-05 20:03 32.31006 -108.64153 35049 ft 522 kts 107°
2026-05-05 20:03 32.30139 -108.55638 35056 ft 521 kts 108°
2026-05-05 20:04 32.29268 -108.47132 35004 ft 522 kts 108°
2026-05-05 20:04 32.28389 -108.38605 35019 ft 522 kts 108°
2026-05-05 20:04 32.27949 -108.34354 34815 ft 519 kts 108°
2026-05-05 20:05 32.27505 -108.30101 33912 ft 527 kts 107°
2026-05-05 20:05 32.27047 -108.25792 32962 ft 532 kts 108°
2026-05-05 20:05 32.26555 -108.21470 32170 ft 529 kts 108°
2026-05-05 20:05 32.26072 -108.17199 31663 ft 519 kts 108°
2026-05-05 20:06 32.25603 -108.13035 31428 ft 503 kts 108°
2026-05-05 20:06 32.25141 -108.09002 31078 ft 491 kts 109°
2026-05-05 20:06 32.24685 -108.05029 30548 ft 485 kts 109°
2026-05-05 20:06 32.24235 -108.01090 29936 ft 482 kts 109°
2026-05-05 20:07 32.23787 -107.97187 29437 ft 476 kts 109°
2026-05-05 20:07 32.23349 -107.93364 29005 ft 468 kts 109°
2026-05-05 20:07 32.22912 -107.89590 28596 ft 458 kts 109°
2026-05-05 20:07 32.22484 -107.85885 28127 ft 452 kts 109°
2026-05-05 20:08 32.22058 -107.82217 27612 ft 449 kts 108°
2026-05-05 20:08 32.21644 -107.78582 27125 ft 444 kts 109°
2026-05-05 20:08 32.21224 -107.74987 26669 ft 440 kts 109°
2026-05-05 20:08 32.20813 -107.71429 26281 ft 435 kts 108°
2026-05-05 20:09 32.20405 -107.67907 25819 ft 433 kts 108°
2026-05-05 20:09 32.19998 -107.64400 25361 ft 430 kts 108°
2026-05-05 20:09 32.19594 -107.60927 24957 ft 426 kts 108°
2026-05-05 20:09 32.19198 -107.57528 24514 ft 424 kts 108°
2026-05-05 20:10 32.18794 -107.54090 24006 ft 421 kts 108°
2026-05-05 20:10 32.18397 -107.50694 23647 ft 416 kts 107°
2026-05-05 20:10 32.18004 -107.47371 23259 ft 411 kts 107°
2026-05-05 20:10 32.17608 -107.43993 22830 ft 410 kts 107°
2026-05-05 20:11 32.17215 -107.40670 22409 ft 408 kts 107°
2026-05-05 20:11 32.16827 -107.37389 21995 ft 404 kts 107°
2026-05-05 20:11 32.16439 -107.34101 21542 ft 404 kts 107°
2026-05-05 20:11 32.16052 -107.30864 21018 ft 404 kts 106°
2026-05-05 20:12 32.15653 -107.27533 20453 ft 407 kts 106°
2026-05-05 20:12 32.15256 -107.24223 19900 ft 409 kts 105°
2026-05-05 20:12 32.14859 -107.20929 19324 ft 414 kts 105°
2026-05-05 20:12 32.14451 -107.17536 18770 ft 418 kts 104°
2026-05-05 20:13 32.14046 -107.14131 18221 ft 419 kts 104°
2026-05-05 20:13 32.13638 -107.10725 17677 ft 416 kts 104°
2026-05-05 20:13 32.13232 -107.07369 17147 ft 414 kts 104°
2026-05-05 20:13 32.12825 -107.04034 16628 ft 408 kts 104°
2026-05-05 20:14 32.12428 -107.00734 16104 ft 405 kts 103°
2026-05-05 20:14 32.12154 -106.98515 15714 ft 403 kts 105°
2026-05-05 20:14 32.11267 -106.94326 14994 ft 396 kts 110°
2026-05-05 20:14 32.10799 -106.92206 14607 ft 395 kts 110°
2026-05-05 20:15 32.10123 -106.89080 14066 ft 393 kts 109°
2026-05-05 20:15 32.09468 -106.86008 13499 ft 390 kts 109°
2026-05-05 20:15 32.08808 -106.82899 12931 ft 393 kts 109°
2026-05-05 20:15 32.08075 -106.79790 12452 ft 392 kts 111°
2026-05-05 20:16 32.07349 -106.76734 12022 ft 380 kts 110°
2026-05-05 20:16 32.06645 -106.73765 11560 ft 375 kts 110°
2026-05-05 20:16 32.05935 -106.70818 11016 ft 373 kts 110°
2026-05-05 20:16 32.05217 -106.67894 10484 ft 370 kts 110°
2026-05-05 20:17 32.04511 -106.65011 10024 ft 364 kts 109°
2026-05-05 20:17 32.03807 -106.62154 9415 ft 363 kts 109°
2026-05-05 20:17 32.03110 -106.59314 8832 ft 358 kts 108°
2026-05-05 20:17 32.02421 -106.56514 8281 ft 355 kts 108°
2026-05-05 20:18 32.01742 -106.53748 7734 ft 349 kts 108°
2026-05-05 20:18 32.01080 -106.51033 7119 ft 344 kts 108°
2026-05-05 20:18 32.00414 -106.48359 6593 ft 339 kts 108°
2026-05-05 20:18 31.99746 -106.45723 6245 ft 330 kts 109°
2026-05-05 20:19 31.99116 -106.43206 6169 ft 311 kts 108°
2026-05-05 20:19 31.98526 -106.40894 6122 ft 280 kts 110°
2026-05-05 20:19 31.97627 -106.39048 6057 ft 244 kts 139°
2026-05-05 20:19 31.96355 -106.37818 6160 ft 235 kts 149°
2026-05-05 20:20 31.95110 -106.36731 6007 ft 214 kts 148°
2026-05-05 20:20 31.93961 -106.35718 5723 ft 200 kts 148°
2026-05-05 20:20 31.92880 -106.34774 5524 ft 188 kts 148°
2026-05-05 20:20 31.91845 -106.33862 5456 ft 184 kts 148°
2026-05-05 20:21 31.90807 -106.33018 5340 ft 180 kts 156°
2026-05-05 20:21 31.89680 -106.32444 5197 ft 175 kts 167°
2026-05-05 20:21 31.88493 -106.32152 5067 ft 177 kts 179°
2026-05-05 20:21 31.87276 -106.32138 5104 ft 172 kts 189°
2026-05-05 20:22 31.86134 -106.32388 5037 ft 162 kts 205°
2026-05-05 20:22 31.85140 -106.32958 4895 ft 157 kts 222°
2026-05-05 20:22 31.84365 -106.33871 4676 ft 160 kts 237°
2026-05-05 20:22 31.83690 -106.34928 4499 ft 162 kts 239°
2026-05-05 20:23 31.83010 -106.35978 4240 ft 160 kts 237°
2026-05-05 20:23 31.82314 -106.36973 4011 ft 155 kts 233°
2026-05-05 20:23 31.81684 -106.37858 3951 ft 112 kts 230°
2026-05-05 20:23 31.81330 -106.38352 3950 ft 53 kts 229°
2026-05-05 20:24 31.81142 -106.38617 3952 ft 41 kts 229°
2026-05-05 20:24 31.80954 -106.38872 3951 ft 41 kts 231°
2026-05-05 20:24 31.80763 -106.39072 3949 ft 28 kts 203°
2026-05-05 20:24 31.80588 -106.39154 3949 ft 28 kts 200°
2026-05-05 20:25 31.80402 -106.39232 3949 ft 29 kts 200°
2026-05-05 20:25 31.80278 -106.39286 3949 ft 7 kts 200°
2026-05-05 20:25 31.80234 -106.39311 3949 ft 8 kts 221°
2026-05-05 20:25 31.80185 -106.39362 3949 ft 10 kts 214°
2026-05-05 20:26 31.80146 -106.39404 3949 ft 8 kts 245°
2026-05-05 20:26 31.80136 -106.39470 3949 ft 8 kts 244°
2026-05-05 20:26 31.80092 -106.39478 3949 ft 5 kts 167°
2026-05-05 20:26 31.80063 -106.39469 3949 ft 2 kts 163°
2026-05-05 20:27 31.80053 -106.39466 3949 ft 1 kts 163°
2026-05-05 20:27 31.80051 -106.39465 3949 ft 0 kts 163°